Weather History for Burns, OR

Change the Weather History Date:

Tuesday, February 12, 2013

  Actual Average Record
Temperature  
Mean Temperature 34 °F 28 °F  
Max Temperature 43 °F 38 °F 61 °F (1977)
Min Temperature 25 °F 17 °F -4 °F (1948)
Degree Days  
Heating Degree Days 31 37  
Month to date heating degree days 417 458  
Since 1 July heating degree days 4817 4971  
Cooling Degree Days 0 0  
Month to date cooling degree days 0 0  
Year to date cooling degree days 0 0  
Moisture  
Dew Point 27 °F    
Average Humidity 75    
Maximum Humidity 92    
Minimum Humidity 57    
Precipitation  
Precipitation 0.00 in 0.03 in 0.40 in (1987)
Month to date precipitation 0.09 0.42  
Year to date precipitation 0.48 1.61  
Sea Level Pressure  
Sea Level Pressure 30.39 in    
Wind  
Wind Speed 4 mph (SW)    
Max Wind Speed 13 mph    
Max Gust Speed 16 mph    
Visibility 10 miles    
Events      
T = Trace of Precipitation, MM = Missing Value Source: NWS Daily Summary

Daily Weather History Graph

Daily Weather History Graph

Search for Another Location

Airport:

Trip Planner

Search our weather history database for the weather conditions in past years. The results will help you decide how hot, cold, wet, or windy it might be!

Date:

Astronomy

Feb. 12, 2013 Rise Set
Actual Time 6:58 AM PST 5:22 PM PST
Civil Twilight 6:28 AM PST 5:52 PM PST
Nautical Twilight 5:54 AM PST 6:25 PM PST
Astronomical Twilight 5:21 AM PST 6:59 PM PST
Moon 7:51 AM PST (2/12) 8:36 PM PST (2/12)
Length of Visible Light 11h 23m
Length of Day
10h 24m
Waxing Crescent, 8% of the Moon is Illuminated
Feb 12
Waxing Crescent
Feb 17
First Quarter
Feb 25
Full
Mar 4
Last Quarter
Mar 11
New

Hourly Weather History & Observations

Time (PST) Temp. Windchill Dew Point Humidity Pressure Visibility Wind Dir Wind Speed Gust Speed Precip Events Conditions
12:53 AM 26.1 °F 19.4 °F 23.0 °F 88% 30.32 in 10.0 mi SSW 5.8 mph - N/A   Clear
1:53 AM 26.1 °F - 23.0 °F 88% 30.32 in 10.0 mi Calm Calm - N/A   Clear
2:53 AM 28.9 °F 21.9 °F 26.1 °F 89% 30.31 in 10.0 mi West 6.9 mph - N/A   Overcast
3:53 AM 28.9 °F 23.9 °F 26.1 °F 89% 30.32 in 10.0 mi SW 4.6 mph - N/A   Overcast
4:53 AM 27.0 °F 19.5 °F 25.0 °F 92% 30.36 in 10.0 mi West 6.9 mph - N/A   Mostly Cloudy
5:53 AM 26.1 °F 19.4 °F 23.0 °F 88% 30.38 in 10.0 mi WSW 5.8 mph - N/A   Mostly Cloudy
6:53 AM 26.1 °F 19.4 °F 23.0 °F 88% 30.38 in 10.0 mi West 5.8 mph - N/A   Overcast
7:53 AM 28.0 °F - 25.0 °F 88% 30.40 in 10.0 mi Calm Calm - N/A   Overcast
8:53 AM 33.1 °F - 25.0 °F 72% 30.41 in 10.0 mi Calm Calm - N/A   Clear
9:53 AM 36.0 °F - 27.0 °F 70% 30.41 in 10.0 mi Calm Calm - N/A   Overcast
10:53 AM 37.0 °F 32.4 °F 28.0 °F 70% 30.42 in 10.0 mi SSW 5.8 mph - N/A   Mostly Cloudy
11:53 AM 37.9 °F 31.5 °F 28.9 °F 70% 30.41 in 10.0 mi South 9.2 mph - N/A   Overcast
12:53 PM 39.0 °F 32.3 °F 30.0 °F 70% 30.41 in 10.0 mi SSW 10.4 mph - N/A   Overcast
1:53 PM 43.0 °F 37.2 °F 28.9 °F 58% 30.38 in 10.0 mi SW 10.4 mph - N/A   Overcast
2:53 PM 39.0 °F 32.3 °F 30.0 °F 70% 30.39 in 10.0 mi SSW 10.4 mph - N/A   Overcast
3:53 PM 39.0 °F - 30.9 °F 73% 30.40 in 10.0 mi Calm Calm - N/A   Overcast
4:53 PM 37.0 °F 31.6 °F 30.0 °F 76% 30.41 in 10.0 mi SSW 6.9 mph - N/A   Overcast
5:53 PM 36.0 °F - 30.0 °F 79% 30.43 in 10.0 mi Calm Calm - N/A   Overcast
6:53 PM 35.1 °F 32.2 °F 28.9 °F 78% 30.42 in 10.0 mi SSW 3.5 mph - N/A   Overcast
7:53 PM 30.9 °F 25.2 °F 28.0 °F 89% 30.42 in 10.0 mi SSW 5.8 mph - N/A   Partly Cloudy
8:53 PM 28.9 °F 25.2 °F 27.0 °F 92% 30.42 in 10.0 mi SSW 3.5 mph - N/A   Mostly Cloudy
9:53 PM 28.0 °F - 25.0 °F 88% 30.42 in 10.0 mi Calm Calm - N/A   Clear
10:53 PM 28.9 °F 23.9 °F 26.1 °F 89% 30.43 in 10.0 mi North 4.6 mph - N/A   Overcast
11:53 PM 27.0 °F - 25.0 °F 92% 30.42 in 10.0 mi Calm Calm - N/A   Clear